This demonstration page uses our WeatherBlox Daily Observations layout. Learn more.

Left ArrowRight Arrow

39.08367, -84.50855

Hourly Observations for October 23, 2015

Temp ( °F °C ) Dew Point ( °F °C ) Humidity (%) Winds ( mph kmh ) Pressure ( in mb ) Visibility ( mi km ) Precip ( " mm )
12:53 am 00:53 Clear 57 13.9 56 13.3 96 96 Calm 30.23 1024 8 13 0.00 0.00
1:07 am 01:07 Mostly Clear with Mist and Fog 55 12.8 55 12.8 100 100 Calm 30.24 1024 1 2 0.00 0.00
1:19 am 01:19 Clear with Mist and Fog 56 13.3 56 13.3 100 100 Calm 30.24 1024 2 3 0.00 0.00
1:21 am 01:21 Mostly Clear with Mist and Fog 55 12.8 55 12.8 100 100 Calm 30.24 1024 1 2 0.00 0.00
1:23 am 01:23 Mostly Cloudy with Mist and Fog 56 13.3 56 13.3 100 100 Calm 30.24 1024 1 1 0.00 0.00
1:33 am 01:33 Mostly Clear with Mist and Fog 54 12.2 54 12.2 100 100 Calm 30.24 1024 1 2 0.00 0.00
1:37 am 01:37 Clear with Mist and Fog 54 12.2 54 12.2 100 100 Calm 30.24 1024 3 5 0.00 0.00
1:53 am 01:53 Clear with Mist and Fog 53 11.7 53 11.7 100 100 Calm 30.22 1023 4 6 0.00 0.00
2:17 am 02:17 Clear with Mist and Fog 55 12.8 55 12.8 100 100 Calm 30.24 1024 1 1 0.00 0.00
2:21 am 02:21 Mostly Cloudy with Fog 55 12.8 55 12.8 100 100 Calm 30.24 1024 0 0 0.00 0.00
2:41 am 02:41 Mostly Cloudy with Mist and Fog 54 12.2 54 12.2 100 100 Calm 30.24 1024 1 2 0.00 0.00
2:53 am 02:53 Mostly Clear with Mist and Fog 54 12.2 54 12.2 100 100 Calm 30.22 1023 3 4 0.00 0.00
3:07 am 03:07 Clear with Mist and Fog 54 12.2 54 12.2 100 100 Calm 30.24 1024 2 3 0.00 0.00
3:10 am 03:10 Clear with Mist and Fog 54 12 54 12 100 100 Calm 30.24 1024 3 5 0.00 0.00
3:22 am 03:22 Clear with Mist and Fog 54 12 54 12 100 100 Calm 30.24 1024 2 3 0.00 0.00
3:29 am 03:29 Clear with Mist and Fog 54 12 54 12 100 100 Calm 30.24 1024 1 2 0.00 0.00
3:34 am 03:34 Mostly Cloudy with Fog 53 11.7 53 11.7 100 100 Calm 30.24 1024 1 1 0.00 0.00
3:45 am 03:45 Mostly Cloudy with Fog 53 11.7 53 11.7 100 100 Calm 30.24 1024 0 0 0.00 0.00
3:53 am 03:53 Mostly Cloudy with Fog 51 10.6 51 10.6 100 100 Calm 30.22 1024 1 1 0.00 0.00
3:57 am 03:57 Mostly Cloudy with Fog 51 10.6 51 10.6 100 100 Calm 30.24 1024 0 0 0.00 0.00
4:10 am 04:10 Mostly Cloudy with Mist and Fog 54 12 54 12 100 100 Calm 30.24 1024 1 2 0.00 0.00
4:13 am 04:13 Clear with Mist and Fog 52 11.1 52 11.1 100 100 Calm 30.24 1024 3 4 0.00 0.00
4:20 am 04:20 Clear with Mist and Fog 52 11 52 11 100 100 Calm 30.24 1024 1 1 0.00 0.00
4:30 am 04:30 Clear with Mist and Fog 52 11.1 52 11.1 100 100 Calm 30.24 1024 1 2 0.00 0.00
4:33 am 04:33 Mostly Cloudy with Fog 51 10.6 51 10.6 100 100 Calm 30.24 1024 1 1 0.00 0.00
4:42 am 04:42 Mostly Cloudy with Fog 50 10 50 10 100 100 Calm 30.24 1024 0 0 0.00 0.00
4:53 am 04:53 Mostly Cloudy with Fog 50 10 50 10 100 100 Calm 30.22 1023 1 1 0.00 0.00
5:20 am 05:20 Mostly Clear with Mist and Fog 52 11 52 11 100 100 Calm 30.21 1023 1 2 0.00 0.00
5:22 am 05:22 Mostly Clear with Mist and Fog 52 11 52 11 100 100 Calm 30.21 1023 4 6 0.00 0.00
5:30 am 05:30 Mostly Cloudy with Mist and Fog 50 10 50 10 100 100 Calm 30.21 1023 1 1 0.00 0.00
5:41 am 05:41 Mostly Cloudy with Fog 50 10 50 10 100 100 Calm 30.21 1023 0 0 0.00 0.00
5:53 am 05:53 Mostly Cloudy with Fog 49 9.4 49 9.4 100 100 Calm 30.22 1023 0 0 0.00 0.00
6:53 am 06:53 Partly Cloudy with Patchy Fog 50 10 50 10 100 100 Calm 30.23 1024 10 16 0.00 0.00
7:53 am 07:53 Mostly Clear with Patchy Fog 49 9.4 49 9.4 100 100 Calm 30.24 1024 7 11 0.00 0.00
8:53 am 08:53 Sunny 52 11.1 52 11.1 100 100 Calm 30.25 1025 10 16 0.00 0.00
9:53 am 09:53 Sunny 58 14.4 55 12.8 90 90 NNE 6 9 30.26 1025 7 11 0.00 0.00
10:53 am 10:53 Sunny 64 17.8 56 13.3 75 75 NE 7 11 30.24 1024 9 14 0.00 0.00
11:53 am 11:53 Sunny 67 19.4 56 13.3 68 68 ENE 8 13 30.23 1024 10 16 0.00 0.00
12:53 pm 12:53 Sunny 70 21.1 58 14.4 66 66 NE 6 9 30.21 1023 10 16 0.00 0.00
1:53 pm 13:53 Sunny 72 22.2 58 14.4 61 61 ESE 6 9 30.17 1022 10 16 0.00 0.00
2:53 pm 14:53 Sunny 74 23.3 58 14.4 57 57 NNE 5 7 30.15 1021 10 16 0.00 0.00
3:53 pm 15:53 Sunny 75 23.9 59 15 58 58 E 6 9 30.12 1020 10 16 0.00 0.00
4:53 pm 16:53 Sunny 75 23.9 58 14.4 55 55 E 5 7 30.10 1019 10 16 0.00 0.00
5:53 pm 17:53 Sunny 74 23.3 58 14.4 57 57 E 5 7 30.09 1019 10 16 0.00 0.00
6:53 pm 18:53 Clear 65 18.3 59 15 81 81 E 5 7 30.09 1019 10 16 0.00 0.00
7:53 pm 19:53 Partly Cloudy 64 17.8 60 15.6 87 87 Calm 30.11 1020 10 16 0.00 0.00
8:53 pm 20:53 Clear 62 16.7 59 15 90 90 Calm 30.11 1020 10 16 0.00 0.00
9:53 pm 21:53 Clear 61 16.1 59 15 93 93 Calm 30.10 1019 9 14 0.00 0.00
10:53 pm 22:53 Clear 60 15.6 59 15 96 96 Calm 30.09 1019 8 13 0.00 0.00
11:53 pm 23:53 Clear 60 15.6 58 14.4 93 93 Calm 30.08 1019 7 11 0.00 0.00

Powered by AerisWeather